Theta_e
298 292 288 293 293 292 291 290 288 290 292 291 290 291 294 296 297 296 297 298 299 300 300 301 302 303 307 319 325 327 328 329 330 329 327 327 327 328 328 328 328 327 326 326
291 283 290 296 295 293 291 289 288 291 293 291 289 290 293 294 295 296 297 297 296 295 296 297 298 299 300 303 316 323 326 328 329 330 330 329 329 330 331 331 330 329 328 328
287 289 293 293 292 290 289 288 287 288 291 289 286 285 287 292 293 294 294 293 293 292 293 296 297 298 299 300 301 312 321 325 327 329 329 327 326 324 324 327 329 329 329 329
290 293 291 289 288 290 286 291 291 290 287 281 286 279 286 289 291 290 292 292 292 293 295 296 297 298 298 299 301 303 307 317 323 327 327 326 325 324 327 327 327 328 328 328
288 291 290 288 288 291 286 292 291 290 286 284 282 280 283 287 287 289 292 293 294 294 294 294 296 298 299 300 300 300 302 306 313 323 326 325 324 326 327 326 325 325 326 326
290 294 293 292 293 291 292 290 289 287 284 276 281 280 279 283 286 289 292 293 293 294 294 296 296 298 298 301 302 303 303 303 304 307 317 323 323 323 323 324 323 324 325 326
289 289 293 294 290 292 289 285 277 277 275 274 280 280 281 286 287 290 291 292 293 293 293 295 295 295 297 299 300 302 303 303 305 306 305 305 307 310 315 318 320 321 322 324
279 277 290 293 290 288 288 285 280 272 273 275 281 278 280 285 289 291 291 292 293 293 293 294 295 295 295 297 298 299 299 300 301 303 304 307 308 308 308 308 309 310 312 315
280 280 288 292 292 292 288 284 287 279 270 274 278 280 286 287 287 287 288 289 290 292 293 293 294 294 295 295 296 296 297 298 298 299 300 302 305 306 306 308 309 309 311 312
283 279 286 289 292 291 290 291 283 281 271 268 276 278 278 284 284 286 286 287 288 290 292 292 293 293 294 295 295 295 296 295 296 297 299 300 300 301 302 303 302 304 305 308
286 282 281 286 285 284 287 286 285 285 281 274 271 276 283 285 286 285 286 287 287 289 290 290 291 293 294 293 293 293 293 293 293 295 296 296 295 296 297 297 298 298 300 301
287 283 275 281 287 291 288 286 285 279 278 282 279 279 287 287 288 286 286 286 287 289 289 289 290 292 292 291 290 290 291 290 290 291 292 292 291 292 292 292 293 294 295 297
287 283 272 276 281 285 284 285 288 287 285 278 277 279 288 288 287 287 286 286 286 287 288 288 289 290 289 288 287 287 288 287 287 288 288 288 287 287 288 289 290 291 291 293
290 282 279 273 277 281 281 282 284 284 276 277 280 282 285 285 286 286 286 287 286 286 286 287 289 288 287 286 285 285 285 285 285 286 285 285 284 284 285 286 286 287 289 289
281 275 277 279 279 282 282 282 282 281 281 277 278 279 282 284 285 285 285 285 285 286 286 286 288 287 285 284 283 282 283 283 283 283 283 282 282 282 283 283 284 285 286 286
282 270 271 267 276 277 279 281 281 282 282 281 280 279 284 284 284 284 284 284 284 285 286 287 287 285 284 282 280 280 280 281 281 281 280 280 280 280 281 281 282 282 283 284
279 271 265 263 270 267 266 272 278 279 280 280 276 279 282 281 282 283 283 284 284 285 286 287 286 284 282 279 279 277 278 280 279 279 278 278 278 278 279 280 280 280 281 283
275 272 264 262 262 260 273 276 276 278 280 281 281 280 280 281 283 283 284 284 285 285 286 287 285 281 279 278 276 277 279 277 277 277 277 276 276 276 277 278 278 279 280 281
280 274 261 263 256 267 272 274 274 274 273 277 277 278 279 281 281 279 283 285 284 284 285 284 280 278 276 275 275 276 277 275 275 275 275 275 275 275 276 276 276 277 278 280
280 276 267 254 258 258 270 275 277 277 268 276 279 278 279 280 276 278 282 283 283 283 282 279 277 276 274 273 274 275 274 273 272 273 274 274 274 274 274 274 274 276 277 278
272 268 261 257 257 264 274 277 278 266 271 279 280 279 279 278 280 282 282 281 282 281 279 276 275 273 272 272 272 272 271 270 271 272 273 273 273 273 274 273 273 274 274 275
265 266 259 264 262 260 277 277 274 278 280 281 279 279 280 280 280 281 280 281 280 278 276 275 273 272 270 271 270 270 269 270 270 271 271 271 271 272 273 270 272 272 272 272
267 271 268 269 270 277 278 279 281 281 280 279 279 281 280 279 280 279 278 277 276 274 274 273 271 271 269 269 269 268 268 269 269 269 269 270 270 271 271 271 272 273 272 272
274 276 272 272 277 277 279 280 280 280 280 281 281 280 278 277 278 278 277 276 274 272 271 270 269 269 268 267 268 267 268 268 267 267 269 270 270 270 271 271 272 273 274 272
275 276 274 273 277 278 279 279 281 281 281 280 278 277 277 276 276 275 274 273 272 271 270 269 268 268 266 266 265 264 266 266 266 267 268 268 269 267 268 269 270 272 275 276
276 275 273 272 278 278 279 280 281 280 279 278 276 275 275 274 273 272 272 271 270 269 268 267 266 264 263 263 264 264 263 264 263 265 266 266 266 266 266 266 267 272 274 275
Wind_Speed
2 4 7 8 7 4 6 5 1 1 0 1 3 5 9 4 5 7 7 7 8 8 5 7 8 7 6 6 8 11 10 10 8 6 6 7 9 8 8 9 11 12 12 13
4 4 4 5 6 8 7 5 3 3 2 2 2 6 9 3 6 5 7 8 9 9 10 10 12 9 7 6 5 7 10 8 9 8 5 5 4 7 8 8 10 13 13 13
5 1 5 5 3 6 4 7 5 2 2 4 3 6 6 2 3 7 8 6 7 8 9 12 12 10 9 10 8 5 5 7 9 10 5 2 1 0 2 6 7 9 11 11
2 1 4 3 4 4 4 7 7 5 3 3 3 5 5 4 5 10 10 10 9 10 9 9 11 11 10 9 8 8 6 5 4 6 7 9 8 8 5 5 5 6 10 11
3 5 4 4 4 6 3 5 7 5 5 3 3 2 8 3 6 10 9 10 10 8 7 10 10 9 9 9 9 7 8 9 8 3 5 3 6 5 4 3 4 5 6 9
3 1 3 4 2 3 8 6 7 5 4 1 4 5 4 3 3 3 4 9 9 10 10 11 9 9 10 10 10 9 9 10 10 9 7 4 5 5 5 6 4 5 5 5
2 1 1 2 6 4 2 6 3 3 1 5 2 2 1 2 3 2 5 9 10 7 9 11 13 13 13 14 13 11 12 13 11 10 9 7 7 7 7 8 6 8 7 5
5 2 5 2 3 7 5 3 5 7 4 3 1 4 0 1 1 3 5 5 6 10 9 10 11 10 11 13 13 13 12 12 13 12 10 8 8 5 4 6 6 5 5 6
4 2 2 4 2 2 3 3 4 7 3 3 3 3 5 4 3 4 6 8 9 9 10 10 9 11 10 11 12 12 12 11 12 10 9 10 9 9 8 8 7 7 8 7
2 4 3 2 3 3 2 5 4 3 4 2 2 3 6 5 6 8 12 9 8 7 9 10 10 9 8 8 8 9 10 11 10 11 10 8 9 8 8 7 8 9 8 9
3 4 3 3 4 2 2 2 4 4 3 5 3 5 4 9 5 4 4 6 7 8 8 7 7 8 6 6 9 9 11 11 12 11 10 9 9 9 8 8 8 9 9 9
2 4 3 2 3 3 2 3 2 4 2 0 1 2 5 7 3 2 3 5 6 6 7 6 6 6 8 9 10 11 10 11 12 11 10 10 10 10 10 10 11 10 11 10
2 2 3 4 5 5 4 2 4 3 2 4 4 2 4 3 3 5 5 5 4 6 7 7 6 7 7 8 9 10 11 11 11 11 11 11 12 13 12 12 12 12 12 12
3 3 3 4 3 2 2 2 4 3 3 2 3 3 3 4 8 7 7 8 7 7 7 6 5 5 5 6 7 8 9 9 10 10 10 10 12 12 12 12 12 11 11 11
4 5 3 3 4 2 1 1 3 4 2 4 2 3 2 6 5 5 5 7 8 10 8 7 6 5 3 5 7 8 8 9 10 10 10 11 11 11 11 11 11 11 11 10
3 2 3 5 6 5 2 1 2 3 2 5 3 7 4 2 2 5 7 7 7 8 8 6 5 6 6 7 7 8 9 9 9 9 9 10 11 11 11 11 12 11 11 11
4 5 4 4 4 5 6 5 3 2 3 5 5 5 4 3 5 6 6 5 4 7 7 8 6 4 5 6 8 9 9 8 7 8 9 10 11 12 11 11 11 11 12 11
3 4 4 2 5 3 6 2 1 4 5 7 7 3 2 2 5 7 4 3 5 8 8 8 4 3 3 4 5 7 6 7 8 8 9 10 11 12 12 11 11 10 9 10
3 5 4 5 3 5 5 3 5 5 4 2 3 2 2 6 4 1 2 2 5 7 7 3 2 2 3 5 7 7 5 6 7 9 9 10 10 11 11 12 12 10 9 8
4 6 6 4 6 6 7 1 2 4 5 3 5 4 5 5 9 3 2 6 8 8 3 4 4 2 4 6 7 6 7 7 8 9 9 9 9 9 9 10 10 8 8 7
3 4 5 2 1 9 9 6 3 7 6 5 1 3 2 3 6 6 8 6 5 3 3 3 4 4 4 6 7 6 5 6 7 8 8 7 7 7 7 8 6 8 7 6
7 6 3 2 3 9 7 4 7 6 3 3 4 4 5 7 7 6 7 5 7 6 5 5 4 4 4 6 6 6 6 8 8 7 6 6 6 5 5 5 6 6 6 6
2 7 6 10 9 4 6 5 2 3 1 3 3 4 4 7 7 6 4 5 4 4 4 3 4 4 3 4 5 6 7 8 8 7 6 5 6 6 6 5 6 4 5 5
5 4 3 3 7 12 8 7 5 4 6 6 7 6 4 7 6 6 5 3 2 2 3 3 4 5 5 4 5 5 7 8 7 7 7 6 6 7 5 4 4 4 4 3
6 7 6 6 10 7 8 8 7 6 5 4 2 3 5 5 6 5 4 4 3 3 2 2 2 2 3 4 4 3 5 5 6 6 5 6 5 6 6 6 4 5 5 7
7 8 6 8 8 5 6 5 6 5 5 4 4 3 4 4 5 3 4 3 3 4 3 2 2 2 3 4 5 4 3 4 5 6 5 5 4 5 5 5 6 10 10 11
Wind_Direction
304 108 207 194 157 134 134 111 203 253 93 143 201 269 281 295 305 303 294 288 279 304 336 326 322 310 292 250 228 224 219 215 197 196 206 223 226 225 226 224 225 220 220 219
58 218 200 134 150 126 112 124 214 282 3 119 64 280 280 251 256 252 302 330 342 329 351 350 351 341 340 310 272 239 232 213 205 209 203 208 203 227 229 226 220 220 223 224
148 216 155 151 156 138 151 154 172 171 6 44 350 307 333 10 333 20 22 14 12 358 358 356 358 2 2 3 343 305 266 230 216 216 203 178 163 359 227 229 232 226 225 227
145 350 142 148 165 148 179 175 148 136 83 227 13 276 302 335 10 44 20 22 11 10 11 3 1 5 8 354 347 357 346 306 248 203 219 218 227 241 246 246 229 231 212 225
216 163 144 135 201 165 220 154 142 124 106 73 323 121 271 330 76 35 22 19 18 5 356 7 359 351 355 0 360 0 7 22 4 312 241 236 252 266 286 272 265 243 233 227
153 75 120 177 107 126 151 97 54 61 98 351 228 174 293 46 341 18 13 14 8 4 0 16 6 14 18 7 11 16 23 26 17 19 5 310 275 280 286 284 276 272 257 244
155 98 136 145 88 29 66 98 48 28 17 221 304 103 156 352 75 87 19 6 354 355 12 17 17 15 17 19 15 17 23 28 20 27 25 16 5 350 333 326 323 317 308 293
133 328 181 180 167 172 188 152 150 176 196 201 34 199 162 172 60 331 323 324 349 15 15 20 15 12 14 14 19 19 19 23 17 19 16 12 13 9 357 349 337 328 317 311
124 126 346 40 32 90 199 179 163 108 49 67 197 98 25 262 311 4 19 24 10 5 5 9 9 22 23 21 18 16 16 21 21 16 12 14 10 11 3 358 356 350 338 330
138 105 16 339 164 48 115 158 73 11 130 225 292 246 180 176 27 14 14 3 354 352 7 9 12 11 14 18 17 21 23 19 7 12 17 14 10 8 5 5 5 356 341 336
120 90 315 52 25 141 50 81 52 114 115 156 163 258 166 149 134 69 342 340 354 352 356 357 6 5 5 14 17 14 17 14 14 7 3 8 9 5 1 3 358 352 339 340
331 109 88 97 319 338 65 106 124 114 196 109 104 280 117 135 99 27 334 338 344 348 343 355 11 6 14 11 10 10 12 12 5 357 359 2 0 3 1 355 351 347 342 340
195 53 76 5 1 357 79 93 96 101 102 194 151 258 177 87 357 360 20 353 340 334 343 351 15 17 10 7 6 5 8 6 1 358 1 3 1 358 356 350 346 344 341 339
64 100 155 159 166 130 131 166 143 152 128 178 221 173 205 346 348 352 345 342 337 338 346 342 11 13 6 6 4 358 0 1 355 357 1 1 356 350 346 343 342 341 338 336
78 106 89 38 3 36 185 152 171 176 178 164 207 281 265 289 297 303 314 322 342 346 347 345 349 353 4 2 0 357 358 356 351 353 357 354 345 343 341 344 341 340 341 340
27 134 92 3 3 23 280 280 218 225 223 277 270 285 217 101 296 323 306 325 344 335 330 340 341 342 351 360 353 347 346 348 348 353 353 347 345 343 345 344 339 342 345 348
64 117 64 265 347 351 353 234 193 161 183 171 222 212 77 13 337 302 297 315 286 320 310 314 313 331 346 357 349 345 337 340 347 353 351 352 347 342 340 336 339 346 345 348
101 79 60 184 15 26 246 265 284 246 250 237 263 21 42 254 244 264 270 231 298 330 313 302 343 2 23 3 349 327 335 350 356 359 354 351 346 340 336 336 342 342 342 345
26 105 85 118 174 288 314 217 160 166 275 264 254 66 326 318 307 280 251 267 304 301 299 313 13 9 7 8 342 331 355 357 2 358 350 349 345 340 342 345 341 341 339 349
72 62 106 72 126 199 235 254 344 77 301 289 128 28 341 359 330 307 306 311 299 302 332 9 10 31 16 356 343 343 357 359 356 348 340 339 341 343 346 342 338 333 338 354
61 4 132 133 178 290 249 226 27 84 236 182 202 303 277 252 229 280 306 301 307 313 16 26 20 28 11 350 345 350 351 354 334 329 327 333 338 331 345 346 343 343 342 353
163 141 200 105 97 283 186 106 165 201 174 192 275 267 266 262 273 273 294 314 326 334 359 10 2 14 16 359 350 347 354 337 326 322 319 323 328 335 347 347 345 350 0 4
294 183 180 178 211 248 217 224 213 134 223 264 242 264 277 286 293 315 309 331 341 346 340 359 354 342 20 9 12 351 346 335 331 325 324 328 333 338 340 340 340 351 360 12
247 175 213 92 246 237 236 261 258 253 220 226 218 235 261 268 285 285 291 306 305 314 330 347 352 356 356 8 5 349 336 337 330 327 332 339 343 343 340 337 329 328 341 341
199 153 198 256 270 284 256 223 240 228 206 240 206 228 243 261 282 287 299 303 309 315 332 359 355 349 339 344 337 332 341 339 337 327 335 343 342 339 335 338 319 328 326 336
184 201 175 225 213 208 239 185 175 218 242 222 203 239 224 236 264 280 286 294 301 313 339 350 358 350 309 324 320 323 340 349 340 332 335 339 334 336 333 333 330 338 346 338